Theta_e
281 281 279 278 279 281 278 278 278 278 278 278 279 278 279 280 280 280 281 282 282 280 281 281 282 282 283 282 282 282 282 282 282 281 281 282 280 280 281 280 280 280
280 284 285 282 283 282 279 279 279 279 279 278 279 279 280 279 279 279 279 279 280 279 280 281 281 281 281 281 281 281 280 281 281 283 280 279 279 279 279 279 279 280
280 282 280 280 280 279 279 280 280 279 279 279 279 279 281 281 279 279 279 279 279 279 279 279 279 280 280 279 280 280 280 280 280 280 281 279 279 279 279 279 279 279
280 280 280 279 279 279 278 280 279 280 280 281 280 281 282 283 279 280 281 283 278 279 278 279 279 279 278 278 279 279 279 279 279 279 279 280 281 279 280 281 281 279
280 280 279 279 279 280 279 279 279 279 279 279 279 280 283 281 279 280 280 280 278 279 279 279 279 279 280 279 278 277 280 278 279 277 278 279 279 281 281 281 279 279
280 280 280 280 279 279 279 279 279 279 279 279 280 281 280 279 279 279 280 279 279 279 279 279 279 279 279 279 278 278 279 279 279 278 279 279 278 278 280 280 278 278
280 280 280 280 280 279 280 279 279 280 279 280 280 280 280 279 279 279 278 279 278 280 279 278 279 279 279 278 278 279 278 279 278 278 278 278 279 279 279 279 279 278
280 279 280 279 280 279 280 280 279 280 280 279 279 280 280 280 280 279 279 279 278 278 279 279 279 279 278 279 279 279 278 280 280 278 278 278 278 278 278 279 279 278
279 279 279 279 279 279 280 280 280 279 279 280 280 280 280 280 280 280 280 279 279 279 279 279 279 279 279 279 279 279 279 279 280 279 279 279 278 279 279 278 278 279
279 279 279 279 279 280 280 280 280 280 280 280 280 279 280 280 280 280 279 279 279 279 279 279 279 279 279 279 279 279 279 279 279 279 279 279 279 279 279 278 278 278
279 279 279 279 279 279 280 280 280 280 280 280 280 280 280 279 280 280 279 279 280 280 280 279 279 279 279 279 279 279 279 280 279 279 279 279 279 280 281 279 279 279
279 279 279 279 280 280 280 280 280 280 280 280 280 280 280 280 280 280 280 280 280 280 280 280 280 279 279 279 279 279 279 279 279 279 279 279 279 279 279 280 280 279
280 280 280 280 280 280 280 280 280 280 279 280 280 280 280 280 280 280 280 280 280 280 280 280 280 280 279 279 279 279 279 279 279 279 279 279 279 279 280 279 279 280
281 280 280 280 280 280 280 280 280 280 280 280 279 279 280 280 280 280 280 280 280 280 280 280 280 280 279 279 279 279 279 279 279 279 279 279 279 279 279 279 279 279
281 280 280 280 280 280 280 280 280 280 280 280 279 280 280 280 280 280 280 280 280 280 280 280 280 280 280 280 279 279 279 279 279 279 279 279 279 279 279 279 279 279
281 280 281 280 280 280 280 280 280 280 280 279 279 280 280 280 279 280 279 280 280 280 279 280 280 281 283 285 285 281 279 280 280 279 279 279 279 279 279 279 279 279
281 281 280 280 280 280 280 280 280 280 279 279 280 280 280 279 279 279 279 279 279 280 279 280 281 282 285 286 287 287 283 280 279 279 279 279 279 279 279 279 279 279
281 281 280 281 280 280 280 280 280 279 279 279 279 279 280 279 279 279 279 279 280 279 279 280 281 284 286 287 287 288 288 284 281 280 280 279 279 279 279 279 279 279
281 281 281 281 281 281 281 280 279 279 279 279 279 280 279 279 279 279 279 279 279 279 279 280 280 284 286 287 287 288 289 287 283 282 281 280 280 280 279 279 279 279
281 281 281 281 281 281 280 280 279 280 280 280 280 279 279 279 279 279 279 279 279 279 280 280 280 283 286 287 287 288 288 288 284 283 282 282 281 281 281 280 279 279
281 281 281 282 281 281 280 280 280 280 280 280 280 280 279 279 279 279 279 279 279 279 279 280 281 284 285 286 287 288 288 288 284 283 282 282 282 281 281 281 280 280
281 281 281 281 281 281 280 280 280 280 280 280 280 280 279 279 279 279 279 280 280 279 279 279 280 284 285 286 287 287 288 286 284 282 282 281 281 282 282 282 282 281
282 282 282 281 281 281 280 281 281 281 281 280 280 280 279 279 279 280 280 280 279 279 279 279 280 283 285 286 286 287 287 284 282 281 281 281 281 281 281 282 282 281
282 282 282 282 281 281 281 281 281 281 281 281 280 280 280 280 280 280 279 279 279 279 279 279 280 282 284 285 286 287 286 283 282 281 281 281 280 281 280 280 279 281
283 282 282 282 281 281 281 281 281 281 281 280 280 280 280 280 279 279 279 279 279 279 280 279 280 281 284 285 286 286 286 283 281 280 280 280 280 279 278 278 277 280
282 282 282 282 282 282 281 281 281 281 280 280 280 279 279 279 279 279 279 279 279 278 279 279 279 279 280 284 285 286 287 283 281 280 279 279 279 278 276 275 276 277
Wind_Speed
0 1 2 2 1 1 1 2 2 3 2 2 5 2 4 2 3 4 4 4 4 5 5 5 5 5 5 5 4 5 5 5 5 4 5 5 5 5 6 5 4 4
1 0 0 1 1 1 0 1 1 1 1 1 1 1 1 2 3 3 4 4 4 4 4 4 4 4 4 4 3 5 5 4 5 2 5 5 4 4 4 4 4 3
2 1 2 3 3 2 1 0 0 0 0 0 0 0 1 1 2 2 3 3 4 4 4 3 4 3 3 3 3 4 4 4 4 3 4 4 3 4 2 3 3 3
3 3 4 3 3 4 3 2 1 1 0 0 1 1 0 0 1 1 2 2 3 3 2 3 3 3 3 3 3 4 3 3 1 2 3 2 2 2 1 1 2 1
4 4 4 3 3 2 3 3 4 3 3 3 2 1 1 1 1 0 1 1 1 1 1 1 1 1 1 2 3 3 1 2 1 2 2 1 0 0 0 0 0 0
4 4 4 4 4 4 4 4 4 4 4 3 5 3 3 2 2 2 2 2 1 1 1 1 1 1 1 2 2 2 2 2 1 1 1 1 2 1 1 1 1 2
5 4 5 4 4 4 4 5 4 4 5 5 2 4 4 4 4 4 4 4 4 4 4 4 4 4 3 3 3 3 3 3 2 2 3 3 2 3 2 2 3 4
6 4 4 4 4 4 5 5 5 5 5 3 5 5 4 5 5 5 4 5 4 4 4 4 4 4 4 3 4 4 4 3 4 4 4 4 3 4 4 4 4 4
5 5 4 5 5 5 6 6 6 5 4 6 6 6 5 5 6 5 5 5 5 5 5 5 5 5 4 4 5 5 5 4 5 5 5 5 5 6 6 4 4 5
6 5 5 5 6 7 7 7 7 6 5 6 7 5 6 6 5 5 5 5 5 5 6 6 6 6 5 5 6 6 6 6 5 6 6 6 6 6 6 5 6 5
6 5 6 7 8 7 8 7 7 7 5 7 6 6 6 5 5 5 5 6 8 8 8 7 8 7 7 7 6 6 7 7 7 6 7 7 7 8 7 6 7 8
7 5 7 8 8 8 8 8 7 6 7 6 6 8 7 7 7 6 7 9 9 9 9 9 8 8 8 8 8 7 7 7 7 7 7 8 8 8 8 7 8 9
7 8 8 8 8 8 7 6 7 7 7 8 7 7 8 8 7 8 8 8 9 8 9 9 9 8 8 8 8 8 8 8 8 8 8 8 8 9 8 8 8 8
8 7 7 8 7 6 6 7 7 7 7 7 5 8 9 9 9 9 9 7 9 8 9 7 8 7 7 8 8 8 8 8 9 8 9 8 9 9 8 8 9 9
7 5 5 6 6 6 7 8 7 7 6 6 6 8 8 9 8 8 8 8 8 8 8 7 8 9 8 8 8 9 8 9 9 9 9 9 9 9 8 8 8 8
6 5 5 5 6 8 8 8 7 7 6 7 8 8 8 8 7 7 8 9 9 9 8 8 9 8 10 13 12 9 8 8 8 8 8 9 9 9 9 8 9 8
5 6 5 6 8 7 7 7 8 7 6 7 8 8 9 8 7 8 9 9 9 9 9 9 9 9 14 15 17 18 11 8 8 9 8 8 9 9 11 10 8 7
7 6 5 8 6 8 8 8 6 6 7 8 8 9 9 6 7 10 9 8 8 8 9 10 10 11 15 16 17 18 15 10 8 8 8 8 9 10 9 9 9 8
6 6 7 7 8 9 7 5 6 6 7 8 10 10 5 7 10 8 9 9 8 9 10 11 11 12 15 16 16 17 17 14 8 9 9 10 9 9 9 9 8 7
6 7 8 9 8 7 6 6 6 9 9 8 7 5 7 8 8 9 9 8 9 10 10 10 11 11 15 15 15 16 17 14 8 9 9 10 10 9 8 8 8 8
7 8 9 9 8 7 6 7 8 8 8 8 7 8 8 9 9 9 9 8 9 8 9 10 11 12 12 14 15 16 16 13 8 8 8 9 9 9 9 9 8 8
8 8 9 9 8 7 7 9 9 9 10 8 7 7 7 6 7 6 8 8 8 8 8 11 11 10 12 13 15 15 16 9 8 8 8 8 9 9 8 8 8 7
8 9 9 9 8 8 9 9 9 10 9 6 6 8 7 8 9 8 8 8 7 7 9 10 11 9 11 14 15 16 11 7 7 7 7 8 9 8 7 7 6 6
9 9 10 9 8 9 10 10 9 7 8 6 8 8 8 9 7 7 7 7 8 8 9 10 11 9 10 12 14 15 11 7 7 7 7 8 8 6 6 5 5 9
8 8 9 9 9 10 9 9 9 9 7 4 7 7 8 6 6 7 7 6 8 8 9 10 10 9 9 12 13 14 10 6 7 6 7 7 6 6 3 5 4 5
7 8 9 9 10 10 8 9 8 5 6 7 7 6 7 6 6 6 7 8 6 7 8 8 9 9 7 12 13 13 13 8 6 6 8 8 6 6 5 3 3 3
Wind_Direction
164 156 136 127 133 141 106 73 46 81 77 65 86 65 70 51 46 58 54 55 59 59 54 57 55 58 58 56 56 69 68 77 71 64 73 80 80 91 93 97 93 105
237 273 81 118 96 60 70 118 111 92 72 83 89 65 35 63 33 68 68 71 66 67 68 70 72 77 73 72 69 79 73 69 74 62 83 81 89 89 96 100 107 107
225 193 169 177 188 200 198 206 132 131 122 226 2 81 57 68 69 57 76 83 80 75 67 76 73 70 81 78 74 73 77 73 67 54 72 74 74 81 88 98 89 100
227 206 197 207 195 194 194 168 208 191 85 189 209 206 141 79 89 77 58 65 82 73 65 72 84 75 75 75 78 66 71 74 65 72 78 60 59 103 74 102 94 63
214 214 214 215 212 195 175 181 204 209 198 213 235 239 175 175 130 139 75 69 74 72 62 67 57 99 99 92 105 104 87 90 51 86 98 85 292 120 167 122 133 163
241 224 222 210 204 190 196 203 208 199 205 213 220 202 200 180 185 199 198 199 206 194 209 217 212 228 162 159 130 149 156 164 190 129 145 211 254 261 202 176 183 235
233 222 231 219 214 207 209 217 215 207 208 212 190 220 197 193 204 209 207 202 206 212 209 216 214 228 214 180 190 209 219 207 200 188 205 240 231 271 260 223 224 227
238 229 228 215 218 217 221 224 221 217 216 199 210 226 194 208 208 213 205 204 204 218 218 216 219 222 214 188 204 216 231 214 214 209 220 234 223 237 246 230 226 230
242 235 224 224 221 226 226 228 226 223 211 211 221 224 217 212 215 211 212 207 214 222 221 223 224 224 219 201 214 214 222 225 219 213 216 228 229 234 236 233 237 239
238 237 229 227 226 227 228 230 227 224 212 220 225 221 223 228 219 219 214 214 222 229 225 226 228 227 223 212 217 216 221 227 223 219 222 228 230 235 230 220 228 240
242 232 234 233 232 231 233 232 230 226 217 223 225 228 229 227 230 219 220 217 223 224 225 224 225 222 221 222 222 219 221 225 225 222 225 228 232 234 232 220 224 226
241 232 233 235 234 236 236 233 232 227 224 226 217 229 229 225 225 220 215 222 224 226 223 225 224 220 220 221 221 220 223 227 229 228 230 231 233 235 234 227 226 231
240 234 231 234 233 235 236 234 233 230 225 229 218 224 229 230 227 228 228 225 231 228 229 227 229 224 222 222 222 222 223 225 230 230 234 235 236 236 235 230 229 234
241 236 232 235 237 235 236 235 235 232 229 232 219 226 229 230 229 227 233 225 234 231 235 232 235 234 228 225 225 224 223 229 229 232 235 239 242 242 239 236 233 233
242 235 234 238 237 238 239 239 234 233 232 228 224 231 233 234 233 232 236 236 236 234 237 232 232 234 226 222 224 228 223 231 231 233 236 241 247 248 243 239 238 235
239 235 232 230 232 235 237 237 236 233 228 230 230 231 236 235 235 234 233 237 239 238 235 234 236 236 232 221 217 221 221 225 233 235 236 239 245 253 254 245 240 237
239 239 226 229 231 235 238 234 235 229 226 232 234 233 234 234 230 236 233 233 236 240 240 236 239 239 232 228 228 225 220 222 225 235 233 236 239 243 251 255 250 238
240 238 231 237 232 236 234 234 231 225 227 229 234 237 235 226 229 233 235 233 234 238 242 243 245 240 235 233 231 230 225 225 224 233 236 234 236 238 244 249 255 256
241 235 237 240 236 236 237 231 226 229 231 228 232 233 227 223 232 231 236 232 229 236 241 244 247 245 241 236 234 233 231 226 227 229 235 239 237 238 239 243 248 253
239 235 240 241 241 238 233 231 227 232 232 229 235 232 224 232 233 231 235 231 227 231 241 247 248 246 243 241 239 237 235 229 230 231 235 240 241 240 239 238 239 240
237 234 239 245 242 239 233 232 231 239 238 233 225 228 225 227 228 230 233 232 230 229 238 248 250 246 242 241 241 241 240 235 234 232 235 240 243 242 240 238 237 233
231 235 239 243 243 238 233 237 233 232 236 231 225 235 233 235 240 227 236 233 229 225 232 249 254 242 239 240 242 242 241 236 232 230 233 238 243 240 239 238 235 232
227 231 238 239 236 236 237 237 237 237 237 220 225 232 230 227 231 228 228 232 232 222 227 246 258 242 231 237 240 241 240 235 231 230 234 237 241 239 237 236 230 222
229 224 232 237 233 233 236 239 239 243 239 211 216 229 231 231 228 234 229 223 226 228 220 237 253 247 226 233 238 239 231 228 227 227 236 236 242 239 234 229 227 215
232 224 227 232 234 236 233 238 237 234 236 210 223 227 237 234 224 231 237 226 223 229 226 228 250 254 232 235 236 237 233 224 222 225 236 239 233 239 220 218 215 205
231 226 228 227 234 239 235 233 239 242 234 222 230 222 237 237 232 232 240 240 221 221 229 226 238 252 240 236 238 239 235 223 213 216 232 237 225 213 205 214 188 179